Windsor, Ontario

11:23 AM EDT on May 23, 2017 (GMT -0400)
Windsor

Weather History for CYQG - December, 2012

Change the Weather History Date:

Saturday, December 29, 2012

  Actual Average Record
Temperature  
Mean Temperature 26 °F -  
Max Temperature 30 °F 30 °F 44 °F (2003)
Min Temperature 23 °F 16 °F 14 °F (1998)
Degree Days  
Heating Degree Days 38    
Moisture  
Dew Point 25 °F    
Average Humidity 87    
Maximum Humidity 95    
Minimum Humidity 74    
Precipitation  
Precipitation 0.16 in 0.07 in - ()
Sea Level Pressure  
Sea Level Pressure 29.90 in    
Wind  
Wind Speed 9 mph ()    
Max Wind Speed 13 mph    
Max Gust Speed 17 mph    
Visibility 4.5 miles    
Events Snow    
Averages and records for this station are not official NWS values.
T = Trace of Precipitation, MM = Missing Value Source: Averaged Metar Reports

Daily Weather History Graph

Daily Weather History Graph

Search for Another Location

Airport or City:

Trip Planner

Search our weather history database for the weather conditions in past years. The results will help you decide how hot, cold, wet, or windy it might be!

Date:

Astronomy

Dec. 29, 2012 Rise Set
Actual Time 8:00 AM EST 5:08 PM EST
Civil Twilight 7:28 AM EST 5:39 PM EST
Nautical Twilight 6:53 AM EST 6:15 PM EST
Astronomical Twilight 6:19 AM EST 6:49 PM EST
Moon 6:42 PM EST (12/29) 8:31 AM EST (12/29)
Length of Visible Light 10h 11m
Length of Day
9h 07m
Full, 98% of the Moon is Illuminated
Dec 29
Full
Jan 4
Last Quarter
Jan 11
New
Jan 18
First Quarter
Jan 26
Full

Hourly Weather History & Observations

Time (EST) Temp. Windchill Dew Point Humidity Pressure Visibility Wind Dir Wind Speed Gust Speed Precip Events Conditions
12:00 AM 28.4 °F 19.7 °F 26.6 °F 93% 29.97 in 10.0 mi NE 9.2 mph - N/A   Overcast
12:48 AM - - - N/A% - 7.0 mi East 8.1 mph - N/A   Overcast
1:00 AM 29 °F - 26 °F 86% 29.94 in 7 mi ENE 8.1 mph - -   Partly Cloudy
1:00 AM 28.4 °F 19.7 °F 26.6 °F 93% 29.94 in 7.0 mi ENE 9.2 mph - N/A   Overcast
1:27 AM - - - N/A% - 6.0 mi NE 8.1 mph - N/A   Unknown
2:00 AM 28.4 °F 19.1 °F 26.6 °F 93% 29.91 in 5.0 mi NE 10.4 mph - N/A Snow Light Snow
2:18 AM - - - N/A% - 2.5 mi NE 10.4 mph - N/A   Unknown
3:00 AM 28.4 °F 20.4 °F 26.6 °F 93% 29.91 in 2.0 mi East 8.1 mph - N/A Snow Light Snow
3:10 AM - - - N/A% - 0.8 mi East 8.1 mph - N/A   Unknown
3:33 AM - - - N/A% - 1.2 mi ENE 9.2 mph - N/A   Unknown
4:00 AM 28.4 °F 19.1 °F 26.6 °F 93% 29.88 in 1.0 mi ENE 10.4 mph - N/A Snow Light Snow
5:00 AM 28.4 °F 19.1 °F 26.6 °F 93% 29.86 in 1.5 mi NE 10.4 mph - N/A Snow Light Snow
5:08 AM - - - N/A% - 2.5 mi NE 9.2 mph - N/A   Unknown
6:00 AM 28.4 °F 18.0 °F 26.6 °F 93% 29.84 in 2.5 mi NE 12.7 mph - N/A Snow Light Snow
6:19 AM - - - N/A% - 3.0 mi NE 12.7 mph - N/A   Unknown
7:00 AM 28 °F - 27 °F 95% 29.84 in 3 mi NNE 10.4 mph - - Snow Light Snow
7:00 AM 28.4 °F 19.1 °F 26.6 °F 93% 29.84 in 3.0 mi NNE 10.4 mph - N/A Snow Light Snow
7:15 AM - - - N/A% - 1.0 mi NNE 10.4 mph - N/A   Unknown
7:52 AM - - - N/A% - 0.5 mi Calm Calm - N/A   Unknown
8:00 AM 28.4 °F 18.5 °F 26.6 °F 93% 29.83 in 0.5 mi NNE 11.5 mph - N/A Snow Snow
8:11 AM - - - N/A% - 0.8 mi NNE 10.4 mph 17.3 mph N/A   Unknown
8:31 AM - - - N/A% - 1.2 mi North 9.2 mph - N/A   Unknown
8:46 AM - - - N/A% - 1.5 mi North 9.2 mph - N/A   Unknown
9:00 AM 28.4 °F 19.1 °F 26.6 °F 93% 29.82 in 1.8 mi North 10.4 mph - N/A Snow Light Snow
9:11 AM - - - N/A% - 2.0 mi North 8.1 mph - N/A   Unknown
9:25 AM - - - N/A% - 3.0 mi North 10.4 mph - N/A   Unknown
10:00 AM 28.4 °F 19.7 °F 24.8 °F 86% 29.84 in 5.0 mi North 9.2 mph - N/A Snow Light Snow
11:00 AM 28.4 °F 19.7 °F 26.6 °F 93% 29.85 in 3.0 mi North 9.2 mph - N/A Snow Light Snow
11:08 AM - - - N/A% - 1.0 mi North 6.9 mph - N/A   Unknown
12:00 PM 28.4 °F 19.7 °F 26.6 °F 93% 29.85 in 1.5 mi North 9.2 mph - N/A Snow Light Snow
12:30 PM - - - N/A% - 3.0 mi North 10.4 mph - N/A   Unknown
1:00 PM 29 °F - 26 °F 81% 29.83 in 7 mi NNW 9.2 mph - - Snow Light Snow
1:00 PM 28.4 °F 18.5 °F 24.8 °F 86% 29.83 in 7.0 mi NNW 11.5 mph - N/A Snow Light Snow
1:53 PM - - - N/A% - 6.0 mi NW 10.4 mph - N/A   Unknown
2:00 PM 30.2 °F 21.9 °F 26.6 °F 86% 29.83 in 6.0 mi NW 9.2 mph - N/A Snow Light Snow
3:00 PM 30.2 °F 21.3 °F 24.8 °F 80% 29.85 in 6.0 mi NW 10.4 mph - N/A Snow Light Snow
4:00 PM 30.2 °F 21.3 °F 24.8 °F 80% 29.87 in 7.0 mi NW 10.4 mph - N/A Snow Light Snow
5:00 PM 30.2 °F 20.8 °F 24.8 °F 80% 29.90 in 5.0 mi NW 11.5 mph - N/A Snow Light Snow
6:00 PM 30.2 °F 20.8 °F 24.8 °F 80% 29.92 in 5.0 mi NW 11.5 mph - N/A Snow Light Snow
7:00 PM 29 °F - 24 °F 74% 29.95 in 6 mi NW 9.2 mph - - Snow Light Snow
7:00 PM 28.4 °F 19.7 °F 24.8 °F 86% 29.95 in 6.0 mi NW 9.2 mph - N/A Snow Light Snow
8:00 PM 28.4 °F 18.5 °F 23.0 °F 80% 29.97 in 10.0 mi NW 11.5 mph - N/A Snow Light Snow
9:00 PM 28.4 °F 21.2 °F 23.0 °F 80% 29.99 in 12.0 mi WNW 6.9 mph - N/A   Mostly Cloudy
10:00 PM 26.6 °F 16.2 °F 19.4 °F 74% 30.02 in 15.0 mi WNW 11.5 mph - N/A   Scattered Clouds
11:00 PM 24.8 °F 14.6 °F 19.4 °F 80% 30.04 in 15.0 mi WNW 10.4 mph - N/A   Mostly Cloudy